Simultaneous Nadir Overpasses (SNOs) Predictions

Prediction of SNOs near equator between AQUA and NPP Satellite Orbit:

Table of predicted SNOs near equator for the next 14.0 days since TLE Epoch: 12/6/2014
Index Date (AQUA) Time (AQUA) AQUA Lat,Lon Date (NPP) Time (NPP) NPP Lat,Lon Distance(km) Time Diff (sec)
1 12/07/2014 12:25:29 29.98, 12.81 12/07/2014 12:17:48 30.15, 13.71 89.47 461
2 12/07/2014 13:14:52 -30.00,-179.54 12/07/2014 13:08:29 -30.13,-178.95 58.76 383
3 12/07/2014 14:04:22 29.97, -11.91 12/07/2014 13:59:16 30.04, -11.63 28.38 306
4 12/07/2014 14:52:59 -27.23, 156.45 12/07/2014 14:49:09 -27.23, 156.46 0.95 230
5 12/07/2014 15:34:06 -3.17, -29.14 12/07/2014 15:31:20 -3.17, -29.13 1.08 166
6 12/07/2014 16:17:41 24.12, 143.20 12/07/2014 16:16:04 24.13, 143.11 9.54 97
7 12/07/2014 17:05:56 -28.67, -48.04 12/07/2014 17:05:34 -28.72, -48.39 34.65 22
8 12/07/2014 17:54:58 29.91, 119.93 12/07/2014 17:55:53 30.03, 119.29 63.43 55
9 12/07/2014 18:44:28 -29.94, -72.44 12/07/2014 18:46:40 -30.11, -73.39 93.83 132
10 12/10/2014 04:42:01 29.99, 128.68 12/10/2014 04:34:40 30.14, 129.49 79.81 441
11 12/10/2014 05:31:23 -29.95, -63.66 12/10/2014 05:25:20 -30.06, -63.16 49.21 363
12 12/10/2014 06:20:54 29.98, 103.96 12/10/2014 06:16:08 30.03, 104.14 18.68 286
13 12/10/2014 07:07:27 -19.78, -85.89 12/10/2014 07:03:54 -19.78, -85.90 0.75 213
14 12/10/2014 07:47:58 -12.82, 88.82 12/10/2014 07:45:28 -12.82, 88.82 0.58 150
15 12/10/2014 08:33:54 25.25,-100.65 12/10/2014 08:32:36 25.31,-100.82 18.19 78
16 12/10/2014 09:22:09 -29.80, 68.12 12/10/2014 09:22:06 -29.90, 67.69 42.57 3
17 12/10/2014 10:11:30 29.89,-124.20 12/10/2014 10:12:45 30.04,-124.94 73.12 75
18 12/12/2014 20:58:30 29.94,-115.44 12/12/2014 20:51:30 30.07,-114.73 69.90 420
19 12/12/2014 21:47:53 -29.96, 52.22 12/12/2014 21:42:11 -30.06, 52.61 39.25 342
20 12/12/2014 22:37:24 29.99,-140.17 12/12/2014 22:32:59 30.03,-140.09 8.75 265
21 12/12/2014 23:20:47 -8.34, 32.53 12/12/2014 23:17:30 -8.34, 32.54 0.92 197
22 12/13/2014 00:01:56 -21.97,-153.22 12/12/2014 23:59:43 -21.97,-153.23 0.60 133
23 12/13/2014 00:50:02 26.56, 15.55 12/13/2014 00:49:05 26.60, 15.28 26.73 57
24 12/13/2014 01:38:37 -29.90,-175.98 </
